This is the latest recevied weather packets stored in our database for station/object KO6LQK. If no packets are shown the sender has not sent any weather packets the latest 10 day(s).
| Time | Temp. | Humidity | Pressure | Rain* | Wind** | Luminosity | Snow |
|---|---|---|---|---|---|---|---|
| 1788365085 | 21.67° C | 25% | 1023.1 hPa | 0 mm | - | 425 W/m² | - |
| 1788364783 | 21.11° C | 25% | 1023.1 hPa | 0 mm | - | 412 W/m² | - |
| 1788364479 | 20.56° C | 26% | 1023 hPa | 0 mm | - | 384 W/m² | - |
| 1788364172 | 20.56° C | 26% | 1023.1 hPa | 0 mm | - | 358 W/m² | - |
| 1788363868 | 21.11° C | 26% | 1023.2 hPa | 0 mm | - | 320 W/m² | - |
| 1788363567 | 20.56° C | 26% | 1023.1 hPa | 0 mm | - | 301 W/m² | - |
| 1788363266 | 20.56° C | 25% | 1023.1 hPa | 0 mm | - | 270 W/m² | - |
| 1788362962 | 20.56° C | 25% | 1023.1 hPa | 0 mm | - | 249 W/m² | - |
| 1788362658 | 20.56° C | 25% | 1023.1 hPa | 0 mm | - | 218 W/m² | - |
| 1788362353 | 20.56° C | 25% | 1023.3 hPa | 0 mm | - | 181 W/m² | - |
| 1788362049 | 20.56° C | 25% | 1023 hPa | 0 mm | - | 156 W/m² | - |
| 1788361748 | 20° C | 25% | 1022.8 hPa | 0 mm | - | 126 W/m² | - |
| 1788361445 | 19.44° C | 26% | 1023.1 hPa | 0 mm | - | 114 W/m² | - |
| 1788361144 | 18.89° C | 27% | 1022.8 hPa | 0 mm | - | 102 W/m² | - |
| 1788360840 | 18.89° C | 29% | 1023.1 hPa | 0 mm | - | 96 W/m² | - |
| 1788360535 | 18.89° C | 28% | 1023.2 hPa | 0 mm | - | 89 W/m² | - |
| 1788360231 | 18.89° C | 27% | 1023 hPa | 0 mm | - | 84 W/m² | - |
| 1788359930 | 18.89° C | 26% | 1023.1 hPa | 0 mm | - | 77 W/m² | - |
| 1788359625 | 18.89° C | 26% | 1022.9 hPa | 0 mm | - | 73 W/m² | - |
| 1788359321 | 18.33° C | 27% | 1023 hPa | 0 mm | - | 66 W/m² | - |
| 1788359017 | 18.33° C | 27% | 1022.6 hPa | 0 mm | - | 62 W/m² | - |
| 1788358712 | 17.78° C | 28% | 1022.7 hPa | 0 mm | - | 55 W/m² | - |
| 1788358408 | 17.78° C | 28% | 1023.1 hPa | 0 mm | - | 50 W/m² | - |
| 1788358107 | 17.78° C | 28% | 1022.9 hPa | 0 mm | - | 43 W/m² | - |
| 1788357802 | 17.22° C | 28% | 1022.6 hPa | 0 mm | - | 39 W/m² | - |
* Rain latest hour (hover to see other rain measurements)
** Current wind speed in m/s (hover to see current wind gust speed)